{"data":{"norad_id":65596,"intl_designator":"2025-207E","name":"STARLINK-35253","alt_names":[],"object_type":"PAYLOAD","status":"ACTIVE","operator":null,"country":"US","launch_date":"2025-09-13","launch_site_code":"AFWTR","launch_vehicle":null,"mission":null,"orbit_class":"UNKNOWN","rcs_meters":null,"size_class":null,"mass_kg":null,"dimensions":null,"purposes":["comms"],"wikipedia_slug":null,"has_3d_model":false,"image_url":null,"decayed_at":null,"tle_current":{"epoch":"2026-05-25T03:35:41.677152Z","epoch_age_seconds":59199,"freshness":"FRESH","line1":"1 65596U 25207E   26145.14978793  .00003366  00000+0  23719-3 0  9995","line2":"2 65596  97.4489 213.6185 0001737 176.8942 183.2296 15.05652072 39551","mean_motion":15.05652072,"eccentricity":0.0001737,"inclination_deg":97.4489,"raan_deg":213.6185,"arg_perigee_deg":176.8942,"mean_anomaly_deg":183.2296,"bstar":0.00023719,"rev_number":3955,"period_min":95.639625301163,"perigee_km":548.30146701144,"apogee_km":550.7081297722,"semimajor_km":6927.6417983918,"source":"CELESTRAK","updated_at":"2026-05-25T13:38:20.852541Z"}}}